GW3985 Weather Reports


Display with metric or nautical units.
time (UTC)temp
F
wind
direction
speed
MPH
gust
MPH
rain 1hr
in
rain 24hr
in
rain mn
in
humidity
%
barometer
mb
20260506190017 35 76 0.0 3.0 0.01 0.21 0.02 86 1023.6
20260506185057 34 317 0.0 3.0 0.01 0.22 0.02 88 1023.6
20260506184035 33 304 0.0 1.0 0.01 0.22 0.02 89 1023.7
20260506183015 33 309 1.0 5.0 0.00 0.22 0.01 88 1023.8
20260506182015 33 340 0.0 3.0 0.00 0.22 0.01 89 1023.7
20260506181016 33 325 1.0 5.0 0.01 0.22 0.01 89 1023.6
20260506180057 33 303 1.0 4.0 0.01 0.22 0.01 89 1023.5
20260506175036 33 300 1.0 4.0 0.01 0.22 0.01 89 1023.4
20260506174017 34 35 0.0 2.0 0.01 0.22 0.01 90 1023.4
20260506173014 34 18 0.0 1.0 0.01 0.23 0.01 89 1023.4
20260506172015 34 97 0.0 1.0 0.01 0.23 0.01 89 1023.3
20260506171015 34 10 0.0 2.0 0.00 0.22 0.00 89 1023.1
20260506170036 34 281 0.0 2.0 0.00 0.22 0.00 90 1022.8
20260506165016 33 307 0.0 3.0 0.00 0.22 0.00 90 1022.7
20260506164017 33 305 0.0 3.0 0.00 0.22 0.00 90 1022.7
20260506163017 33 302 0.0 3.0 0.00 0.22 0.00 90 1022.6
20260506162015 33 271 0.0 2.0 0.00 0.22 0.00 91 1022.7
20260506161035 33 15 0.0 3.0 0.00 0.22 0.00 91 1022.4
20260506160016 33 42 0.0 1.0 0.00 0.22 0.00 92 1022.5
20260506155016 32 209 0.0 1.0 0.00 0.22 0.00 92 1022.6
20260506154016 32 46 0.0 1.0 0.00 0.22 0.00 91 1022.6
20260506153016 32 60 0.0 3.0 0.00 0.22 0.00 92 1022.4
20260506152017 32 330 0.0 1.0 0.00 0.22 0.00 92 1022.2
20260506151015 32 215 0.0 1.0 0.00 0.22 0.00 92 1022.0
20260506150015 32 0.0 0.0 0.00 0.22 0.00 92 1021.9
20260506145056 32 0.0 0.0 0.00 0.22 0.00 92 1021.9
20260506144016 32 151 0.0 2.0 0.00 0.22 0.00 93 1021.8
20260506143016 31 0.0 0.0 0.00 0.23 0.00 93 1021.8
20260506142016 31 0.0 0.0 0.00 0.23 0.00 93 1021.7
20260506141037 31 0.0 0.0 0.00 0.23 0.00 93 1021.8
20260506140014 31 0.0 0.0 0.00 0.24 0.00 93 1021.8
20260506135035 31 0.0 0.0 0.00 0.24 0.00 94 1021.7
20260506134035 31 0.0 0.0 0.00 0.24 0.00 94 1021.6
20260506133016 30 0.0 0.0 0.00 0.24 0.00 94 1021.5
20260506132016 30 0.0 0.0 0.00 0.24 0.00 94 1021.2
20260506131016 30 0.0 0.0 0.00 0.24 0.00 94 1020.9
20260506130037 30 0.0 0.0 0.00 0.24 0.00 94 1020.9
20260506125015 30 0.0 0.0 0.00 0.25 0.00 94 1020.8
20260506124015 30 0.0 0.0 0.00 0.25 0.00 94 1020.6
20260506123015 29 0.0 0.0 0.00 0.26 0.00 94 1020.5
20260506122016 29 0.0 0.0 0.00 0.27 0.00 94 1020.7
20260506121016 29 0.0 0.0 0.00 0.27 0.00 94 1020.5
20260506120017 29 0.0 0.0 0.00 0.28 0.00 94 1020.4
20260506115057 29 0.0 0.0 0.00 0.28 0.00 94 1020.5
20260506114015 29 0.0 0.0 0.00 0.28 0.00 94 1020.0
20260506113015 29 0.0 0.0 0.00 0.28 0.00 94 1019.8
20260506112015 29 0.0 0.0 0.00 0.29 0.00 94 1020.0
20260506111016 29 0.0 0.0 0.00 0.30 0.00 94 1020.1
20260506110016 29 0.0 0.0 0.00 0.30 0.00 94 1020.0
20260506105017 29 0.0 0.0 0.00 0.30 0.00 94 1019.8
20260506104017 29 0.0 0.0 0.00 0.30 0.00 94 1019.9
20260506103035 29 0.0 0.0 0.00 0.30 0.00 94 1020.0
20260506102015 29 0.0 0.0 0.00 0.30 0.00 94 1020.0
20260506101015 29 0.0 0.0 0.00 0.30 0.00 94 1019.9
20260506100016 29 0.0 0.0 0.00 0.30 0.00 94 1019.8
20260506095016 30 0.0 0.0 0.00 0.30 0.00 95 1019.9
20260506094016 30 0.0 0.0 0.00 0.30 0.00 94 1019.8
20260506093017 30 0.0 0.0 0.00 0.30 0.00 94 1019.5
20260506092014 30 0.0 0.0 0.00 0.30 0.00 94 1019.5
20260506091035 30 0.0 0.0 0.00 0.30 0.00 95 1019.6
20260506090015 30 0.0 0.0 0.00 0.30 0.00 95 1019.6
20260506085016 30 0.0 0.0 0.00 0.30 0.00 95 1019.7
20260506084016 30 0.0 0.0 0.00 0.30 0.00 95 1019.8
20260506083057 30 0.0 0.0 0.00 0.30 0.00 95 1019.9
20260506082017 30 0.0 0.0 0.00 0.30 0.00 95 1019.8
20260506081015 30 0.0 0.0 0.00 0.30 0.00 95 1019.7
20260506073016 30 0.0 0.0 0.00 0.30 0.00 95 1019.6
20260506072016 30 0.0 0.0 0.00 0.30 0.00 95 1019.7
20260506071037 31 0.0 0.0 0.00 0.30 0.00 95 1019.8
20260506062036 31 0.0 0.0 0.00 0.30 0.00 95 1019.3
20260506061016 31 0.0 0.0 0.00 0.30 0.00 95 1019.2
20260506051016 31 0.0 0.0 0.00 0.31 0.30 95 1018.9
20260506045017 31 0.0 0.0 0.00 0.36 0.30 95 1018.9
20260506044015 31 0.0 0.0 0.00 0.43 0.30 95 1018.8
20260506043015 31 0.0 0.0 0.00 0.44 0.30 95 1018.9
20260506042016 31 0.0 0.0 0.00 0.45 0.30 95 1019.0
20260506041016 31 0.0 0.0 0.00 0.46 0.30 95 1019.0
20260506040016 31 62 0.0 1.0 0.00 0.46 0.30 95 1018.9
20260506035016 31 0.0 0.0 0.00 0.48 0.30 95 1018.8
20260506034017 31 0.0 0.0 0.00 0.49 0.30 95 1018.5
20260506033015 31 87 0.0 1.0 0.00 0.49 0.30 95 1018.4
20260506032015 31 0.0 0.0 0.00 0.49 0.30 95 1018.3
20260506031015 31 20 0.0 1.0 0.00 0.49 0.30 95 1018.1
20260506030016 32 246 0.0 1.0 0.00 0.49 0.30 95 1017.9
20260506025016 32 289 0.0 1.0 0.00 0.49 0.30 95 1017.9
20260506024017 32 0.0 0.0 0.00 0.49 0.30 95 1017.6
20260506023017 32 0.0 0.0 0.00 0.49 0.30 95 1017.2
20260506022015 32 0.0 0.0 0.00 0.49 0.30 95 1017.0
20260506021015 32 0.0 0.0 0.00 0.49 0.30 95 1017.0
20260506020015 32 0.0 0.0 0.00 0.49 0.30 95 1016.8
20260506015016 32 0.0 0.0 0.00 0.49 0.30 95 1016.8
20260506014016 32 297 0.0 1.0 0.00 0.49 0.30 95 1016.7
20260506013017 32 131 0.0 1.0 0.00 0.49 0.30 95 1016.5
20260506012037 32 0.0 0.0 0.00 0.49 0.30 94 1016.5
20260506011015 32 304 0.0 1.0 0.00 0.49 0.30 94 1016.4
20260506010015 32 21 0.0 1.0 0.00 0.49 0.30 94 1016.2
20260506005035 32 96 0.0 1.0 0.00 0.49 0.30 94 1016.3
20260506004016 32 83 0.0 1.0 0.00 0.49 0.30 94 1016.3
20260506003016 32 301 0.0 2.0 0.00 0.49 0.30 94 1016.1
20260506002016 33 85 0.0 1.0 0.00 0.49 0.30 94 1016.1
20260506001037 33 85 0.0 1.0 0.00 0.49 0.30 94 1016.0
20260506000055 33 0.0 0.0 0.00 0.49 0.30 94 1015.8
20260505235015 33 0.0 0.0 0.00 0.49 0.30 94 1015.9
20260505234016 33 0.0 0.0 0.01 0.49 0.30 94 1015.9
20260505233016 34 246 0.0 1.0 0.01 0.49 0.30 94 1015.8
20260505232017 34 20 0.0 1.0 0.02 0.49 0.30 94 1015.9
20260505231017 34 297 0.0 1.0 0.02 0.49 0.30 94 1015.8
20260505230017 34 231 0.0 1.0 0.03 0.49 0.30 94 1015.4
20260505225115 34 206 0.0 1.0 0.04 0.49 0.30 94 1015.2
20260505224035 34 231 0.0 1.0 0.04 0.48 0.29 93 1015.1
20260505223016 35 351 0.0 1.0 0.05 0.48 0.29 93 1015.1
20260505222036 35 0.0 0.0 0.05 0.47 0.28 93 1014.9
20260505221016 35 0.0 0.0 0.06 0.46 0.28 93 1014.9
20260505220016 35 110 0.0 1.0 0.06 0.46 0.27 93 1015.0
20260505215037 36 236 0.0 1.0 0.06 0.45 0.26 93 1015.3
20260505214035 35 247 0.0 1.0 0.06 0.44 0.25 93 1015.2
20260505213035 35 102 0.0 1.0 0.06 0.43 0.24 92 1015.2
20260505212016 36 102 0.0 1.0 0.07 0.43 0.24 92 1015.4
20260505211016 36 123 0.0 1.0 0.06 0.41 0.22 92 1015.5
20260505210016 37 266 0.0 1.0 0.06 0.40 0.21 92 1015.7
20260505205017 37 0.0 0.0 0.06 0.39 0.20 92 1016.0
20260505204017 37 91 0.0 1.0 0.06 0.38 0.19 92 1015.9
20260505203015 37 270 0.0 2.0 0.06 0.37 0.18 92 1016.2
20260505202015 37 116 0.0 1.0 0.05 0.35 0.17 92 1016.3
20260505201015 38 107 0.0 1.0 0.05 0.35 0.16 92 1016.3
20260505200016 38 0.0 0.0 0.05 0.34 0.15 91 1016.3
20260505195016 38 106 0.0 2.0 0.05 0.33 0.14 92 1016.3
20260505194017 38 259 0.0 1.0 0.04 0.32 0.13 92 1016.3
20260505193017 38 275 0.0 1.0 0.04 0.31 0.13 92 1016.3
20260505192015 38 133 0.0 1.0 0.03 0.31 0.12 93 1016.5
20260505191015 38 187 0.0 1.0 0.02 0.30 0.11 92 1016.6